Regional Weather Roundup
Issued by NWS

Home | Current Version | Previous Version | Text Only | Print | Product List | Glossary On
Versions: 1 2 3 4 5 6 7 8 9 10 11 12 13 14 15 16 17 18 19 20 21 22 23 24 25 26 27 28 29 30 31 32 33 34 35 36 37 38 39 40 41 42 43 44 45 46 47 48 49 50
961
ASUS45 KSLC 231710
RWRUT

UTAH REGIONAL WEATHER ROUNDUP
NATIONAL WEATHER SERVICE SALT LAKE CITY UT
1100 AM MDT SAT SEP 23 2017

UTZ001>011-023>025-231800-

NORTHERN UTAH

CITY           SKY/WX    TMP DP  RH WIND       PRES   REMARKS
BRIGHAM CITY   CLOUDY    47  33  58 W3        29.98S
HILL AFB       MOSUNNY   47  35  62 E8        29.96S
LOGAN          PTSUNNY   44  36  73 NW5       30.00S
OGDEN          MOSUNNY   48  35  60 CALM      29.96S
SALT LAKE CITY PTSUNNY   49  38  65 N3        29.96S
TOOELE VALLEY  CLOUDY    48  37  66 N8        29.98S
WENDOVER       SUNNY     48  33  56 SW3       30.00S
HEBER CITY     CLOUDY    43  32  65 CALM      29.94S
WEST JORDAN    CLOUDY    45  43  91 N8        29.97R

$$

UTZ011>015-024>027-231800-

CENTRAL/NORTHEAST UTAH

CITY           SKY/WX    TMP DP  RH WIND       PRES   REMARKS
PROVO AIRPORT  CLOUDY    46  37  71 VRB3      29.95S
MOAB/CANYONLAN MOSUNNY   59  31  34 W3        29.80F
DELTA          CLOUDY    45  36  70 NW5       29.96S
PRICE          SUNNY     57  28  33 NE8       29.85F
RICHFIELD      CLOUDY    46  36  66 N9        29.96S
ROOSEVELT      MOSUNNY   54  34  47 SE3       29.91F
VERNAL         CLOUDY    53  34  48 NE10      29.90F

$$

UTZ013>016-019>022-027-231800-

SOUTHERN UTAH

CITY           SKY/WX    TMP DP  RH WIND       PRES   REMARKS
BRYCE CANYON   SUNNY     46  30  53 MISG      29.91F
CEDAR CITY     CLOUDY    41  36  82 N8        29.94S
MILFORD        CLOUDY    42  36  79 N13       29.95S
ST GEORGE      MOSUNNY   60  36  40 SE5       29.86S
HANKSVILLE     SUNNY     59  30  33 CALM      29.84S
KANAB          SUNNY     55  28  35 S6        29.89F
BLANDING         N/A     55  46  70 SE13      29.96S

$$

REGIONAL REPORTS     COLORADO/ARIZONA

CITY           SKY/WX    TMP DP  RH WIND       PRES   REMARKS
CRAIG, CO      LGT RAIN  48  41  76 SE23      29.94F
GRAND JUNCTION CLOUDY    55  45  68 SE20      29.88R
RIFLE, CO      LGT RAIN  50  48  93 E3        29.96S
MONTROSE, CO   LGT RAIN  50  48  93 N3        29.97S FOG
CORTEZ, CO     LGT RAIN  51  47  86 SW8       29.94R
PAGE, AZ       SUNNY     60  29  30 N6        29.81F
GRAND CANYON   SUNNY     54  16  22 SW12G21   29.91S
KINGMAN, AZ    SUNNY     63  32  31 N12       29.86R
FLAGSTAFF, AZ  SUNNY     53  20  27 SW15G24   29.92S

$$

REGIONAL REPORTS    NEVADA/IDAHO/WYOMING

CITY           SKY/WX    TMP DP  RH WIND       PRES   REMARKS
LAS VEGAS, NV  MOSUNNY   67  30  25 N21       29.85S
ELY, NY        CLOUDY    34  33  96 NE8       30.00S WCI  27
ELKO, NV       CLOUDY    34  32  92 CALM      30.05S
POCATELLO, ID  PTSUNNY   41  37  86 CALM      30.06R
BURLEY, ID     PTSUNNY   45  37  73 NW5       30.04S
FORT BRIDGER,  CLOUDY    41  40  97 E7        30.00S
EVANSTON, WY   CLOUDY    37  34  89 N8        29.97S WCI  31
ROCK SPRINGS,  CLOUDY    40  37  89 NE10      29.95F WCI  33
KEMMERER, WY     N/A     37  32  81 E8        30.00R WCI  31

$$




USA.gov is the U.S. government's official web portal to all federal, state and local government web resources and services.